East Albury Real Estate, NSW, 2640 Albury

Thinking about buying in East Albury? Now could not be a better time, with a whopping 3713 properties either residential or commercial there's certainly plenty to choose from.

The average property price for this area is $460,000 with prices in this suburb ranging from $103,000 to $1,058,000.

Distance to the coast is 218 Km.

East Albury Real Estate Market Outlook

In East Albury there has been a history of lower than average prices and demand, offering opportunities for investors or first home owners, especially in the context of the growth in working from home. In this area of average incomes, there is a mix of housing size and quality. While this may present buying opportunities, growth may be constrained. As buyers begin to examine East Albury due to other areas being out of the price range and the trend to working from home, "gentrification" may incease price growth. A mix of professions and above average income earners in East Albury provides good demand. The lower than average housing turnover of these people also means fewer regular listings leading to periodic large price increases. Lower than average population density constrains growth in East Albury to an extent. However, where buyers are willing to compromise on housing and lifestyle choice, there are affordable options. Lower than average industry presence in East Albury we believe will be less of a negative impact than it has in the past. Post-COVID and the growth in working from home has lessened the demand for local employment options. This may make East Albury a better buying opportunity than it may have been in the past.

About

For Sale

McGrath UNIT 8, 519 SCHUBACH ST, EAST ALBURY, NSW, 2640 2 2 1 Auction
McGrath 215 WALSH ST, EAST ALBURY, NSW, 2640 3 2 1 $750,000 - $775,000
One Agency 104 RIVERGUM DR, EAST ALBURY, NSW, 2640 4 2 2 $699,000
RayWhite 494 SCHUBACH ST, EAST ALBURY, NSW, 2640 3 3 2 Auction
RayWhite UNIT 1, 695 LAVIS ST, EAST ALBURY, NSW, 2640 2 1 1 Auction

More

Local Schools


None within suburb boundary

(While the above schools are located with the suburb of East Albury there may also be nearby schools whose catchments cover this suburb)

Local Crime Stats


Average Local Climate by month


(mm)
RAIN
Min (°C)
TEMP
Max (°C)
TEMP
Min (%)
HUMIDITY
Max (%)
HUMIDITY
(m/sec)
WIND
(MJ/sq m)
SOLAR
Jan1.214.533.620.180.13.126.9
Feb2.014.231.428.487.42.723.4
Mar1.711.327.634.191.52.418.5
Apr1.27.123.04295.41.914.4
May1.43.517.455.998.52.09.9
Jun1.31.914.166.798.81.88.5
Jul1.61.613.169.299.22.48.4
Aug1.62.014.361.698.82.411.3
Sept1.43.417.952.798.12.616.2
Oct1.95.622.042.697.22.721.3
Nov1.28.527.328.393.83.125.1
Dec1.511.530.422.587.33.227.5

source: Australian Government Bureau of Meteorology

Recently Sold

10-05-2022 $560,000 526 MILRO AVE EAST ALBURY 2640
06-05-2022 $715,000 662 KEENE ST EAST ALBURY 2640
05-05-2022 $330,000 1 / 363 WOODSTOCK CT EAST ALBURY 2640
03-05-2022 $1,070,000 236 MOUNT ST EAST ALBURY 2640
29-04-2022 $1,021,000 359 EAST ST EAST ALBURY 2640
26-04-2022 $495,000 444 SCHUBACH ST EAST ALBURY 2640
26-04-2022 $686,000 15 IBIS CL EAST ALBURY 2640
26-04-2022 $890,000 349 EAST ST EAST ALBURY 2640
26-04-2022 $230,000 4 / 718 EAST ST EAST ALBURY 2640
26-04-2022 $780,000 501 MILRO AVE EAST ALBURY 2640
19-04-2022 $569,000 278 PEECHELBA ST EAST ALBURY 2640
14-04-2022 $290,000 1 / 519 SCHUBACH ST EAST ALBURY 2640
08-04-2022 $1,750,000 1 BOUNDARY RD EAST ALBURY 2640
08-04-2022 $440,000 274 WALSH ST EAST ALBURY 2640
06-04-2022 $512,000 494 SCHUBACH ST EAST ALBURY 2640
04-04-2022 $590,000 413 SCHUBACH ST EAST ALBURY 2640
28-03-2022 $359,000 25 BARLING WALK EAST ALBURY 2640
28-03-2022 $465,000 1 / 22 IBIS CL EAST ALBURY 2640
23-03-2022 $775,000 502 SCHUBACH ST EAST ALBURY 2640
21-03-2022 $252,000 3 / 148 ALEXANDRA ST EAST ALBURY 2640
18-03-2022 $280,000 4 / 220 CADELL ST EAST ALBURY 2640
15-03-2022 $440,000 317 DOWNSIDE ST EAST ALBURY 2640
07-03-2022 $675,000 281 DENMAR ST EAST ALBURY 2640
04-03-2022 $165,000 2 / 199 ALEXANDRA ST EAST ALBURY 2640
03-03-2022 $550,000 361 WOODSTOCK CT EAST ALBURY 2640
02-03-2022 $680,000 308 RAU ST EAST ALBURY 2640
28-02-2022 $515,000 144 BENYON ST EAST ALBURY 2640
23-02-2022 $400,000 614 BROAD ST EAST ALBURY 2640
21-02-2022 $725,000 29 GRANDVIEW TCE EAST ALBURY 2640
15-02-2022 $337,500 3 / 464 JAMIESON ST EAST ALBURY 2640
14-02-2022 $670,000 33 BEAUS CT EAST ALBURY 2640
11-02-2022 $1,150,000 4 LAFFERTYS WALK EAST ALBURY 2640
08-02-2022 $260,000 7 / 195 ALEXANDRA ST EAST ALBURY 2640
04-02-2022 $270,000 118 EASTERN CCT EAST ALBURY 2640
04-02-2022 $203,000 2 / 283 WEIDNER CRES EAST ALBURY 2640
02-02-2022 $1,715,000 10 MURRAY VIEW RD EAST ALBURY 2640
01-02-2022 $4,125,000 35 GUNBOWER CL EAST ALBURY 2640
31-01-2022 $868,000 239 RIVERGUM DR EAST ALBURY 2640
27-01-2022 $617,000 274 DOWNSIDE ST EAST ALBURY 2640
25-01-2022 $240,000 1 / 681 EAST ST EAST ALBURY 2640
21-01-2022 $886,000 35 GRANDVIEW TCE EAST ALBURY 2640
21-01-2022 $710,000 551 SCHUBACH ST EAST ALBURY 2640
21-01-2022 $420,000 2 / 610 ELECTRA ST EAST ALBURY 2640
18-01-2022 $182,000 2 / 229 CADELL ST EAST ALBURY 2640
14-01-2022 $725,000 381 HEATH ST EAST ALBURY 2640
14-01-2022 $890,000 615 SCHUBACH ST EAST ALBURY 2640
10-01-2022 $215,000 130 EASTERN CCT EAST ALBURY 2640
23-12-2021 $445,000 592 EAST ST EAST ALBURY 2640
21-12-2021 $385,000 168 MOUNTFORD CRES EAST ALBURY 2640
20-12-2021 $2,150,000 107 NORTH ST EAST ALBURY 2640

Residz covers 12m+ Australian properties and brings together a wealth of data to give you a better understanding of an area. From crime and schools to bush fire, flood risk and more. Begin your search for properties for sale or learn more about where you currently reside. Residz is an exciting next-generation Real Estate platform getting better by the day!